EW6791 Weather Reports


Display with metric or nautical units.
time (UTC)temp
F
wind
direction
speed
MPH
gust
MPH
rain 1hr
in
rain 24hr
in
rain mn
in
humidity
%
barometer
mb
20260903053023 70 43 0.0 1.0 0.00 0.00 0.00 79 1011.1
20260903051523 70 42 0.0 0.0 0.00 0.00 0.00 79 1011.1
20260903050024 70 41 0.0 0.0 0.00 0.00 0.00 79 1010.9
20260903044519 70 41 0.0 0.0 0.00 0.00 0.00 79 1010.7
20260903043018 70 48 0.0 0.0 0.00 0.00 0.00 79 1010.4
20260903041523 70 46 0.0 0.0 0.00 0.00 0.00 78 1010.1
20260903040011 70 57 2.0 5.0 0.00 0.00 0.00 78 1009.9
20260903034510 70 46 0.0 2.0 0.00 0.00 0.00 78 1009.8
20260903033014 71 40 0.0 0.0 0.00 0.00 0.00 77 1009.7
20260903031518 71 51 0.0 0.0 0.00 0.00 0.00 77 1009.7
20260903030007 71 44 0.0 0.0 0.00 0.00 0.00 77 1009.9
20260903024505 71 48 0.0 0.0 0.00 0.00 0.00 75 1010.2
20260903023004 71 48 0.0 0.0 0.00 0.00 0.00 75 1010.3
20260903021504 72 48 0.0 0.0 0.00 0.00 0.00 74 1010.2
20260903020003 72 48 0.0 0.0 0.00 0.00 0.00 74 1010.2
20260903014619 72 48 0.0 0.0 0.00 0.00 0.00 74 1010.3
20260903013105 72 127 0.0 0.0 0.00 0.00 0.00 73 1010.1
20260903011620 72 127 0.0 0.0 0.00 0.00 0.00 73 1010.2
20260903010110 73 127 0.0 0.0 0.00 0.00 0.00 72 1009.9
20260903004605 73 127 0.0 0.0 0.00 0.00 0.00 72 1009.8
20260903003109 74 98 0.0 0.0 0.00 0.00 0.00 71 1009.8
20260903001601 74 32 0.0 0.0 0.00 0.00 0.00 69 1009.6
20260903000056 75 32 0.0 0.0 0.00 0.00 0.00 69 1009.6
20260902234557 76 32 0.0 0.0 0.00 0.00 0.00 68 1009.8
20260902233055 77 290 0.0 0.0 0.00 0.00 0.00 65 1009.8
20260902231556 78 290 0.0 0.0 0.00 0.00 0.00 63 1009.9
20260902230059 78 281 0.0 2.0 0.00 0.00 0.00 62 1009.9
20260902224559 79 283 0.0 0.0 0.00 0.00 0.00 62 1009.6
20260902223052 80 270 0.0 0.0 0.00 0.00 0.00 60 1009.5
20260902221552 81 284 0.0 2.0 0.00 0.00 0.00 59 1009.3
20260902220054 80 250 0.0 2.0 0.00 0.00 0.00 63 1009.4
20260902214551 78 290 0.0 0.0 0.00 0.00 0.00 66 1009.8
20260902213048 76 293 0.0 0.0 0.00 0.00 0.00 71 1009.9
20260902211548 75 292 0.0 0.0 0.00 0.00 0.00 72 1009.9
20260902210048 75 134 0.0 0.0 0.00 0.00 0.00 78 1009.7
20260902204548 74 133 0.0 0.0 0.00 0.00 0.00 78 1009.7
20260902203048 74 134 0.0 0.0 0.00 0.00 0.00 77 1009.8
20260902201554 74 209 0.0 2.0 0.00 0.00 0.00 77 1008.7
20260902200046 74 42 0.0 1.0 0.00 0.00 0.00 76 1008.3
20260902194550 74 50 0.0 1.0 0.00 0.00 0.00 74 1010.4
20260902193043 75 271 0.0 0.0 0.00 0.00 0.00 73 1012.1
20260902191537 75 310 1.0 3.0 0.00 0.00 0.00 73 1011.4
20260902190037 76 315 0.0 0.0 0.00 0.00 0.00 71 1011.0
20260902184540 78 316 0.0 0.0 0.00 0.00 0.00 69 1010.6
20260902183036 79 297 0.0 0.0 0.00 0.00 0.00 68 1010.6
20260902181539 79 307 0.0 0.0 0.00 0.00 0.00 68 1010.6
20260902180037 78 335 0.0 0.0 0.00 0.00 0.00 71 1010.7
20260902174534 77 335 0.0 0.0 0.00 0.00 0.00 70 1010.5
20260902173034 78 334 0.0 0.0 0.00 0.00 0.00 70 1010.7
20260902171534 79 334 0.0 0.0 0.00 0.00 0.00 69 1010.7
20260902170033 80 335 0.0 0.0 0.00 0.00 0.00 67 1011.0
20260902164531 80 6 0.0 0.0 0.00 0.00 0.00 63 1010.6
20260902163028 80 7 0.0 0.0 0.00 0.00 0.00 64 1010.6
20260902161536 80 322 0.0 3.0 0.00 0.00 0.00 67 1011.1
20260902160025 79 304 0.0 4.0 0.00 0.00 0.00 70 1011.2
20260902154524 79 236 1.0 4.0 0.00 0.00 0.00 69 1011.4
20260902153022 79 265 0.0 5.0 0.00 0.00 0.00 70 1011.7
20260902151526 78 304 0.0 6.0 0.00 0.00 0.00 71 1011.5
20260902150022 77 252 0.0 2.0 0.00 0.00 0.00 72 1011.4
20260902144520 76 290 0.0 4.0 0.00 0.00 0.00 72 1011.5
20260902143017 77 250 2.0 7.0 0.00 0.00 0.00 71 1011.5
20260902141515 78 311 0.0 5.0 0.00 0.00 0.00 70 1011.1
20260902140016 78 236 2.0 6.0 0.00 0.00 0.00 70 1011.1
20260902134524 78 263 0.0 3.0 0.00 0.00 0.00 70 1011.0
20260902133011 77 290 1.0 4.0 0.00 0.00 0.00 71 1011.1
20260902131510 77 229 0.0 7.0 0.00 0.00 0.00 71 1011.1
20260902130007 77 304 0.0 5.0 0.00 0.00 0.00 71 1010.7
20260902124504 77 280 0.0 4.0 0.00 0.00 0.00 71 1010.6
20260902123004 77 237 0.0 3.0 0.00 0.00 0.00 71 1010.5
20260902121506 76 217 0.0 3.0 0.00 0.00 0.00 72 1010.5
20260902120003 76 247 0.0 0.0 0.00 0.00 0.00 73 1010.3
20260902114505 76 137 0.0 0.0 0.00 0.00 0.00 73 1010.4
20260902113003 75 166 0.0 0.0 0.00 0.00 0.00 74 1010.5
20260902111502 75 248 0.0 0.0 0.00 0.00 0.00 74 1010.5
20260902110104 75 94 0.0 0.0 0.00 0.00 0.00 74 1010.5
20260902104622 75 186 0.0 0.0 0.00 0.00 0.00 75 1010.4
20260902103100 75 153 0.0 0.0 0.00 0.00 0.00 75 1010.1
20260902101602 75 183 0.0 0.0 0.00 0.00 0.00 76 1010.3
20260902100123 75 155 0.0 0.0 0.00 0.00 0.00 76 1010.4
20260902094558 75 184 0.0 0.0 0.00 0.00 0.00 76 1010.3
20260902093112 75 148 0.0 0.0 0.00 0.00 0.00 76 1010.2
20260902091606 75 192 0.0 0.0 0.00 0.00 0.00 76 1010.3
20260902084603 75 170 0.0 0.0 0.00 0.00 0.00 76 1010.3
20260902083107 75 92 0.0 0.0 0.00 0.00 0.00 76 1010.1
20260902081612 75 186 0.0 0.0 0.00 0.00 0.00 77 1010.3
20260902080100 75 201 0.0 0.0 0.00 0.00 0.00 77 1010.3
20260902074554 75 141 0.0 0.0 0.00 0.00 0.00 76 1010.1
20260902073052 75 190 0.0 0.0 0.00 0.00 0.00 76 1010.2
20260902071601 76 182 0.0 0.0 0.00 0.00 0.00 76 1010.1
20260902070052 76 179 0.0 0.0 0.00 0.00 0.00 76 1010.0
20260902064551 76 178 0.0 0.0 0.00 0.00 0.00 75 1010.1
20260902063111 77 190 0.0 0.0 0.00 0.00 0.00 75 1010.1
20260902061553 77 175 0.0 0.0 0.00 0.00 0.00 75 1010.3
20260902060108 77 186 0.0 0.0 0.00 0.00 0.00 75 1010.5
20260902054546 77 165 0.0 0.0 0.00 0.00 0.00 75 1010.7